Miscellaneous Local Product
Issued by NWS Hastings, NE

Home | Current Version | Previous Version | Graphics & Text | Print | Product List | Glossary On
Versions: 1 2 3 4 5 6 7 8 9 10 11 12 13 14 15 16 17 18 19 20 21 22 23 24 25 26 27 28 29 30 31 32 33 34 35 36 37 38 39 40 41 42 43 44 45 46 47 48 49 50
614
AXUS43 KGID 271002
MISGRI

GID CWA HOURLY WEATHER ROUNDUP
NATIONAL WEATHER SERVICE HASTINGS NE
500 AM CDT SAT MAY 27 2017

NOTE: "FAIR" INDICATES FEW OR NO CLOUDS BELOW 12,000 FEET WITH NO
SIGNIFICANT WEATHER AND/OR OBSTRUCTIONS TO VISIBILITY.

...SOUTH CENTRAL NEBRASKA...

CITY           SKY/WX    TMP DP  RH WIND       PRES   REMARKS
GRAND ISLAND   LGT RAIN  58  52  80 W10       29.93R
HASTINGS       LGT RAIN  59  51  75 W9        29.95R
KEARNEY        CLOUDY    57  50  77 NE12      29.89F
ORD            LGT RAIN  55  51  86 N5        29.92S
YORK           CLOUDY    59  46  63 E7        29.89S
AURORA         CLOUDY    59  47  63 CALM      29.90R
LEXINGTON      CLOUDY    56  54  92 E6        29.89S
HOLDREGE       CLOUDY    58  55  89 SE20      29.83F
HEBRON         CLOUDY    63  50  63 NE5       29.87S

...NEBRASKA PANHANDLE...

CITY           SKY/WX    TMP DP  RH WIND       PRES   REMARKS
CHADRON        CLOUDY    50  48  93 CALM      29.99F
ALLIANCE       LGT RAIN  49  48  97 NW10      30.00S
SCOTTSBLUFF    CLOUDY    49  46  90 NW5       30.00F
SIDNEY         CLOUDY    51  49  92 NW9       30.01R

...WESTERN AND NORTH CENTRAL NEBRASKA...

CITY           SKY/WX    TMP DP  RH WIND       PRES   REMARKS
VALENTINE      CLOUDY    52  48  86 NW10      29.96R
AINSWORTH      CLOUDY    53  51  95 SE3       29.92F
ONEILL         LGT RAIN  54  52  92 N3        29.95F
BROKEN BOW     CLOUDY    54  52  93 NE15      29.89F
IMPERIAL       CLOUDY    53  51  93 N10       29.91R
NORTH PLATTE   CLOUDY    53  51  93 NE12      29.91R
MCCOOK         CLOUDY    57  56  96 CALM      29.90R

...EASTERN NEBRASKA...

CITY           SKY/WX    TMP DP  RH WIND       PRES   REMARKS
NORFOLK        CLOUDY    55  49  80 SW3       29.89R
SO SIOUX CITY  CLOUDY    53  49  86 SW3       29.88F
TEKAMAH        CLOUDY    54  47  77 NW5       29.88F
ALBION         LGT RAIN  58  47  66 NW12      29.93R
OMAHA EPPLEY   CLOUDY    57  49  74 NW8       29.87F
OFFUTT AFB     CLOUDY    61  47  62 NE5       29.85F
MILLARD        CLOUDY    65  48  53 CALM      29.87S
LINCOLN        CLOUDY    61  47  59 N5        29.88R
NEBRASKA CITY  CLOUDY    64  43  46 NE9       29.85F
BEATRICE       CLOUDY    64  50  61 NE9       29.86R
FALLS CITY     CLOUDY    64  53  67 NE9       29.81F

...NORTHERN KANSAS...

CITY           SKY/WX    TMP DP  RH WIND       PRES   REMARKS
GOODLAND       CLOUDY    50  50 100 W5        29.90S
HILL CITY      TSTM      60  56  86 SW5       29.86R
NORTON         LGT RAIN  57  52  82 N12       29.85R
PHILLIPSBURG   DRIZZLE   59  59 100 E13       29.83F
SMITH CENTER   RAIN      57  55  94 N9        29.93R
HAYS           CLOUDY    58  56  93 E13       29.86F
RUSSELL        TSTM      59  57  93 N8        29.91R
CONCORDIA      TSTM      59  57  93 W21G41    29.93R FOG
SALINA         CLOUDY    67  57  70 NW36G47   29.88R
TOPEKA         CLEAR     64  64 100 E3        29.78F



USA.gov is the U.S. government's official web portal to all federal, state and local government web resources and services.